Regional Weather Roundup
Issued by NWS

Home | Current Version | Previous Version | Graphics & Text | Print | Product List | Glossary On
Versions: 1 2 3 4 5 6 7 8 9 10 11 12 13 14 15 16 17 18 19 20 21 22 23 24 25 26 27
000
ASUS45 KBOI 290910
RWRID

IDAHO REGIONAL WEATHER ROUNDUP
NATIONAL WEATHER SERVICE BOISE ID
300 AM MDT FRI JUL 29 2016

NOTE: "FAIR" INDICATES FEW OR NO CLOUDS BELOW 12000 FEET
WITH NO SIGNIFICANT WEATHER AND/OR OBSTRUCTIONS TO VISIBILITY

IDZ012-014-291000-
SOUTHWEST IDAHO


CITY           SKY/WX    TMP DP  RH WIND       PRES   REMARKS
BOISE          CLEAR     72  42  34 S6        29.95S
CALDWELL       CLEAR     70  51  51 SW6       29.94S
MOUNTAIN HOME  CLEAR     67  36  31 W8        29.96S
$$

IDZ016-017-291000-
SOUTHCENTRAL IDAHO


CITY           SKY/WX    TMP DP  RH WIND       PRES   REMARKS
BURLEY         CLEAR     61  44  53 SW7       30.02S
JEROME         CLOUDY    69  40  34 S3        30.03S
TWIN FALLS     CLEAR     73  35  25 S14       30.04R
$$

IDZ019>023-291000-
SOUTHEAST IDAHO


CITY           SKY/WX    TMP DP  RH WIND       PRES   REMARKS
IDAHO FALLS    CLEAR     56  44  64 N7        30.07S
POCATELLO      CLEAR     62  36  37 SW8       30.05S
REXBURG        CLEAR     58  48  69 NE5       30.09S
$$

IDZ006-010-011-018-031-032-291000-
CENTRAL IDAHO MOUNTAINS


CITY           SKY/WX    TMP DP  RH WIND       PRES   REMARKS
MCCALL         CLEAR     60  43  53 CALM      30.15F
HAILEY         CLEAR     63  37  39 NW12      30.14S
STANLEY          N/A     45  32  60 S5        30.27F
SALMON         CLEAR     61  45  55 CALM      30.08R
CHALLIS        CLEAR     62  36  37 SE7       30.14F
$$

IDZ002-004-006-007-026-291000-
NORTHERN IDAHO


CITY           SKY/WX    TMP DP  RH WIND       PRES   REMARKS
LEWISTON       CLEAR     75  45  34 CALM      29.93S
LOWELL           N/A     64  57  78 NW3       30.01R
COEUR D`ALENE  CLEAR     64  52  63 NE5       29.98S
MULLAN PASS    CLEAR     65  40  39 N6        30.23F
$$




USA.gov is the U.S. government's official web portal to all federal, state and local government web resources and services.